Regional Weather Roundup
Issued by NWS

Home | Current Version | Previous Version | Text Only | Print | Product List | Glossary Off
Versions: 1 2 3 4 5 6 7 8 9 10 11 12 13 14 15 16 17 18 19 20 21 22 23 24 25 26 27 28 29 30 31 32 33 34 35 36 37 38 39 40 41 42 43 44 45 46 47 48 49 50

000
ASUS43 KIND 301409
RWRIN

WEATHER ROUNDUP FOR INDIANA
NATIONAL WEATHER SERVICE INDIANAPOLIS IN
1000 AM EDT SAT AUG 30 2014

NOTE: "FAIR" INDICATES FEW OR NO CLOUDS BELOW 12,000 FEET WITH NO
SIGNIFICANT WEATHER AND/OR OBSTRUCTIONS TO VISIBILITY.

* - STATION DOES NOT REPORT WEATHER SUCH AS PRECIPITATION OR FOG.

+ - STATION NOT QUALITY CONTROLLED BY THE NATIONAL WEATHER SERVICE.
    USE DATA WITH CAUTION...ESPECIALLY DEWPOINT AND RELATIVE
    HUMIDITY OBSERVATIONS.

INZ001>003-010>013-019-020-301500-
NORTHWEST INDIANA

CITY           SKY/WX    TMP DP  RH WIND       PRES   REMARKS
GARY /AIRPORT/ PTSUNNY   77  70  78 SW5       29.88F
KNOX *+        CLOUDY    73  67  82 S9G17     29.92R
LA PORTE +     CLOUDY    73  70  91 S9        29.93R
MICHIGAN CITY+ PTSUNNY   73  68  83 S10G16    29.91R
MONTICELLO +   LGT RAIN  72  69  89 SW10G16   29.95R
RENSSELAER +   PTSUNNY   75  72  88 S14G21    29.93F
VALPARAISO     PTSUNNY   74  69  85 SW13      29.92R

$$

LMZ046-743>745-301500-
SOUTHERN LAKE MICHIGAN

STATION/POSITION TIME  TEMP WIND        PRES
                       AIR  DIR/SP/G
                 (UTC) (F)  (DEG/KT/KT) (MB)
MICHIGAN CITY    1400   73  170/ 13/ 17   N/A

$$

INZ004-005-014>016-021>024-301500-
NORTH CENTRAL INDIANA

CITY           SKY/WX    TMP DP  RH WIND       PRES   REMARKS
ELKHART        CLOUDY    73  68  83 S7        29.94
GOSHEN         LGT RAIN  74  68  81 S13       29.94R
LOGANSPORT +   CLOUDY    72  64  78 S12G17    29.97S
PERU/GRISSOM   CLOUDY    74  71  91 SW15      29.97R
ROCHESTER +    CLOUDY    77  70  78 S10       29.96R
SOUTH BEND     CLOUDY    74  69  85 SW10      29.93R
WARSAW +       DRIZZLE   72  68  88 S7        29.95S

$$

INZ006>009-017-018-025>027-301500-
NORTHEAST INDIANA

CITY           SKY/WX    TMP DP  RH WIND       PRES   REMARKS
ANGOLA *+      SUNNY     73  66  78 SW8       29.96S
AUBURN +       PTSUNNY   73  63  68 S6        29.98S
FORT WAYNE     CLOUDY    74  66  76 S15       29.98S
HUNTINGTON +   CLOUDY    73  67  80 S6        29.97S

$$

INZ028-029-035-036-043>045-051>053-301500-
WEST CENTRAL INDIANA

CITY           SKY/WX    TMP DP  RH WIND       PRES   REMARKS
GREENCASTLE +  CLOUDY    72  70  94 S8        30.01S
LAFAYETTE      LGT RAIN  73  68  84 SW5       29.96R
TERRE HAUTE    CLOUDY    75  69  81 S12       29.99S

$$

INZ030>032-037>040-046>048-054>057-064-065-301500-
CENTRAL INDIANA

CITY           SKY/WX    TMP DP  RH WIND       PRES   REMARKS
ANDERSON       PTSUNNY   73  64  73 S14G21    30.02F
CP ATTERBURY + CLOUDY    70  68  94 S5        30.05R
COLUMBUS       LGT RAIN  70  68  94 SW9       30.05  FOG
FRANKFORT +    CLOUDY    74  68  82 S7        29.98F
GREENWOOD *+   CLOUDY    73  72  94 S9        30.03S
INDIANAPOLIS   CLOUDY    72  69  90 S12       30.00S
-EAGLE CREEK   CLOUDY    73  67  81 SW9       30.00S
KOKOMO *+      CLOUDY    73  66  78 S13G18    29.98S
MARION +       CLOUDY    73  64  73 S10G17    29.99F
MT COMFORT *+  CLOUDY    70 N/A N/A S8        30.02F
SHELBYVILLE    LGT RAIN  73  67  81 S9        30.04S
ZIONSVILLE +   CLOUDY    74  66  74 S9G16     30.00F

$$

INZ033-034-041-042-049-050-058-059-301500-
EAST CENTRAL INDIANA

CITY           SKY/WX    TMP DP  RH WIND       PRES   REMARKS
MUNCIE         CLOUDY    74  65  73 SW12G21   30.01S

$$

INZ060-061-067>069-081>083-085>088-301500-
SOUTHWEST INDIANA

CITY           SKY/WX    TMP DP  RH WIND       PRES   REMARKS
EVANSVILLE     CLOUDY    75  71  87 NW6       30.03R
WASHINGTON +   CLOUDY    72  71  98 S6        30.02S

$$

INZ062-063-066-070>080-084-089>092-301500-
SOUTH CENTRAL AND SOUTHEAST INDIANA

CITY           SKY/WX    TMP DP  RH WIND       PRES   REMARKS
BLOOMINGTON    LGT RAIN  71  69  93 S8        30.04R

$$




USA.gov is the U.S. government's official web portal to all federal, state and local government web resources and services.